Content
SEND FEEDBACK

Daily
Averages
Monthly
Summary
United States of America

STOCKBRIDGE, MASSACHUSETTS


Home > North America > United States > Massachusetts
Elevation: 842 feet     Latitude: 42 18N     Longitude: 073 20W

WEATHER
 
SELECT A DAY
Number of Records: 186,751;   Date Range: 1/20/99 - 9/16/14
 
SHARE

PRINT THIS DATA

[ ← Previous Day ]
WEATHER ALMANAC - JANUARY 31, 2013
[ Next Day → ]
[ °C ]   °F
Weather ElementAverageHighLow
Temperature39.4 °F57.2 °F (3:39 am)24.1 °F (11:54 pm)
Dewpoint32.7 °F54 °F (2:54 am)9 °F (10:54 pm)
Humidity77.8 %100 % (4:32 am)50 % (12:54 pm)
Barometer29.24 in29.60 in (11:54 pm)28.90 in (6:54 am)
Wind Speed16.2 mph29.9 mph (7:15 am)
Wind Gust50.6 mph (7:15 am)
Weather ElementAverage
Visibility7 mi
Wind DirectionWSW (246.8 °)

Weather ElementTotal
Precipitation1.91 in
Heating Degree Days24.4 (Base 65)
Averaged from 38 records on January 31, 2013
WEATHER CONDITIONS BREAKOUT
WIND DIRECTION BREAKOUT
WEATHER BY HOUR - JANUARY 31, 2013
[ °C ]   °F
Local TimeTemperatureDewpointHumidityBarometerVisibilityWind DirectionWind SpeedGust SpeedPrecipitationEventsConditions
12:50 AM51.8 °F50.0 °F94 %29.27 in3.0 miSSW (200°)9.2 mph0.07 inRainLight Rain
12:54 AM52.0 °F50.0 °F93 %29.24 in2.5 miSSW (200°)6.9 mph17.3 mph0.07 inRainLight Rain
1:28 AM53.6 °F51.8 °F94 %29.22 in5.0 miVariable3.5 mph0.04 inRainLight Rain
1:54 AM54.0 °F52.0 °F93 %29.14 in10.0 miVariable5.8 mph0.07 inRainLight Rain
2:21 AM55.4 °F53.6 °F94 %29.13 in6.0 miSSE (160°)12.7 mph21.9 mph0.03 inRainLight Rain
2:54 AM55.9 °F54.0 °F93 %29.04 in10.0 miSouth (190°)18.4 mph28.8 mph0.05 inRainLight Rain
3:39 AM57.2 °F53.6 °F88 %29.00 in5.0 miSSW (200°)17.3 mph36.8 mph0.06 inRainLight Rain
3:54 AM57.0 °F54.0 °F89 %28.96 in4.0 miSSW (200°)18.4 mph32.2 mph0.09 inRainRain
4:32 AM53.6 °F53.6 °F100 %29.02 in2.0 miWSW (250°)16.1 mph20.7 mph0.23 inRainHeavy Rain
4:54 AM54.0 °F53.1 °F97 %28.96 in6.0 miSW (230°)8.1 mph0.30 inRainLight Rain
5:54 AM55.0 °F51.1 °F86 %28.92 in10.0 miSouth (180°)15.0 mph23.0 mph0.10 inRainLight Rain
6:54 AM54.0 °F50.0 °F86 %28.90 in10.0 miSSW (210°)9.2 mph17.3 mph0.01 inOvercast
7:15 AM50.0 °F46.4 °F87 %29.00 in4.0 miWNW (290°)29.9 mph50.6 mph0.03 inRainLight Rain
7:20 AM42.8 °F39.2 °F87 %28.99 in1.8 miNW (310°)27.6 mph50.6 mph0.12 inRainRain
7:43 AM37.4 °F35.6 °F93 %29.05 in3.0 miWNW (290°)18.4 mph28.8 mph0.25 inRainLight Rain
7:54 AM37.9 °F36.0 °F93 %29.04 in3.0 miWNW (300°)11.5 mph26.5 mph0.27 inRainLight Rain
8:54 AM37.0 °F35.1 °F93 %29.10 in10.0 miWNW (290°)11.5 mph0.04 inRainLight Rain
9:54 AM35.1 °F33.1 °F92 %29.14 in3.0 miWNW (290°)13.8 mph21.9 mph0.06 inRainLight Rain
10:08 AM35.6 °F33.8 °F93 %29.17 in10.0 miWNW (300°)15.0 mph27.6 mph0.00 inOvercast
10:25 AM35.6 °F33.8 °F93 %29.18 in8.0 miWNW (290°)17.3 mph27.6 mph0.00 inRainLight Rain
10:49 AM35.6 °F28.4 °F75 %29.21 in10.0 miWest (280°)20.7 mph32.2 mph0.01 inOvercast
10:54 AM36.0 °F28.0 °F73 %29.20 in10.0 miWest (280°)19.6 mph29.9 mph0.01 inOvercast
11:54 AM34.0 °F19.9 °F56 %29.23 in10.0 miWest (280°)21.9 mph38.0 mphScattered Clouds
12:54 PM36.0 °F19.0 °F50 %29.25 in10.0 miWest (280°)25.3 mph44.9 mphOvercast
1:54 PM34.0 °F18.0 °F52 %29.26 in10.0 miWest (280°)18.4 mph34.5 mphMostly Cloudy
2:54 PM34.0 °F19.0 °F54 %29.31 in10.0 miWest (280°)20.7 mph29.9 mphOvercast
3:54 PM34.0 °F18.0 °F52 %29.34 in10.0 miNW (310°)18.4 mph28.8 mphOvercast
4:54 PM30.0 °F19.0 °F64 %29.40 in10.0 miWest (280°)15.0 mph28.8 mphMostly Cloudy
5:54 PM30.0 °F18.0 °F61 %29.43 in10.0 miWest (280°)19.6 mph28.8 mphMostly Cloudy
6:54 PM28.0 °F17.1 °F63 %29.48 in10.0 miWNW (290°)18.4 mph25.3 mphOvercast
7:54 PM27.0 °F16.0 °F63 %29.53 in6.0 miWest (270°)20.7 mph29.9 mph0.00 inHaze
8:54 PM26.1 °F15.1 °F63 %29.55 in10.0 miWest (260°)20.7 mph26.5 mph0.00 inOvercast
9:38 PM24.8 °F15.8 °F69 %29.55 in2.5 miWest (270°)13.8 mph26.5 mph0.00 inSnowLight Snow
9:43 PM24.8 °F17.6 °F74 %29.55 in1.8 miWest (270°)11.5 mph0.00 inSnowLight Snow
9:45 PM24.8 °F17.6 °F74 %29.55 in2.0 miWest (280°)15.0 mph21.9 mph0.00 inSnowLight Snow
9:54 PM25.0 °F16.0 °F69 %29.58 in9.0 miWest (270°)13.8 mph23.0 mph0.00 inOvercast
10:54 PM25.0 °F9.0 °F51 %29.58 in10.0 miWest (270°)20.7 mph29.9 mphMostly Cloudy
11:54 PM24.1 °F10.0 °F55 %29.60 in10.0 miWest (270°)15.0 mph28.8 mph0.00 inPartly Cloudy
Hourly data recorded from KPSF, located miles away from Stockbridge, Massachusetts







STORIES FROM OUR PARTNERS